P/2007 H1 (McNaught)

Epoch 2007 Aug. 8.0 TT = JDT 2454320.5  

T 2007 Aug. 17.64039 TT                                 Nakano

q   2.2810161            (2000.0)            P               Q

n   0.14031908     Peri.  202.60941     +0.96952159     +0.21369192

a   3.6676811      Node   144.37610     -0.18128380     +0.95474021

e   0.3780768      Incl.   11.87410     -0.16481525     +0.20689827

P   7.02 (+/- 0.02 day)

From 362 observations 2007 Apr. 17-Sept. 11, mean residual 0".59.

Residuals in seconds of arc 

2007/                     070724 071  0.6-  0.2-    070814 A02  0.5-  0.2-  

070417 E12  0.5+  0.2+    070725 A79  0.5-  0.0     070814 071  1.2-  0.3-  

070417 E12  0.1+  0.0     070725 A79  0.2+  0.2+    070814 071  0.4-  0.3-  

070417 E12  0.0   0.2+    070725 A79  0.7-  0.5+    070814 A02  0.1-  0.3-  

070417 E12  0.3+  0.5-    070725 A79  0.6-  0.5-    070814 071  1.6-  0.7-  

070417 E12  0.4+  0.2-    070725 J59  0.6-  0.5-    070814 A02  0.4-  0.3-  

070418 H36  1.3-  0.9-    070725 J59  0.8-  0.3+    070814 071  0.4-  0.5-  

070418 H36  0.6-  0.2-    070725 J59  0.4-  0.6-    070814 D88  0.4-  0.2+  

070418 H36  0.9-  1.4+    070725 I05  0.3+  0.1-    070814 D88  0.1-  0.2-  

070418 H06  0.0   0.4-    070725 I05  0.5-  0.1-    070814 D88  0.3+  0.4-  

070418 H06  0.9-  0.1+    070726 160  0.6+  0.4+    070815 B30  0.7+  0.1+  

070418 E12  0.5+  0.0     070726 160  0.3+  0.2+    070815 B30  0.3+  0.4+  

070418 E12  0.3+  0.1+    070726 160  0.4+  0.4+    070815 B30  0.0   0.6+  

070418 E12  0.5+  0.3+    070726 B42  0.9+  0.0     070815 J53  0.6+  0.0   

070419 H06  0.0   0.1-    070726 B42  0.4+  0.1+    070815 J53  0.6+  0.0   

070419 H06  0.3+  1.2-    070726 B42  1.0+  0.1+    070815 J59  1.1-  0.2-  

070419 F85  0.6-  0.1+    070727 349  0.0   0.0     070815 J59  0.7-  0.6-  

070419 F85  0.1-  0.2+    070727 349  0.1-  0.2+    070815 J53  0.7+  0.1+  

070419 F85  0.8-  0.3+    070727 349  0.2-  0.1-    070815 J59  0.7-  0.8-  

070419 E03  0.5+  0.2+    070728 213  0.5+  0.5+    070815 A01  0.6-  0.6-  

070419 E03  0.3+  0.3+    070728 213  0.2-  0.5+    070815 A01  0.2+  0.1-  

070419 E12  0.1+  0.2-    070728 442  0.9-  0.2+    070815 A01  0.2-  0.4-  

070420 H36  0.0   0.9-    070728 213  1.0+  0.8+    070815 355  0.0   0.2-  

070420 H36  0.3-  0.6+    070728 232  0.1-  0.3-    070815 355  0.4-  0.2-  

070420 H36  1.3-  0.8+    070728 232  0.0   0.2-    070815 355  0.8-  0.3-  

070420 H36  0.5-  1.6-    070728 232  0.2-  0.2-    070815 355  0.4-  0.2-  

070420 E12  0.3+  0.1+    070731 349  0.5-  0.1+    070816 B42  1.3-  0.4+  

070425 349  1.1-  1.5-    070731 349  0.3-  0.3+    070816 B42  0.6-  0.3+  

070425 349  0.6-  1.6-    070804 B42  0.7+  0.5-    070816 235  0.1+  0.5-  

070425 372  0.9-  0.7-    070804 B42  1.8+  0.3-    070817 945  0.0   0.3-  

070428 349  1.0+  0.0     070805 442  0.4-  0.4+    070817 945  0.1-  0.2-  

070428 349  0.7+  0.1-    070805 A32  0.6-  0.1+    070817 945  0.1-  0.2-  

070505 415  0.3+  0.0     070805 A32  0.6-  0.3+    070817 945  0.0   0.3-  

070505 415  0.1-  0.2+    070805 A32  0.8-  0.2+    070817 945  0.2-  0.4-  

070510 415  0.4+  0.1+    070805 232  0.2+  0.2-    070817 J47  0.9+  0.2+  

070510 415  0.3+  0.2+    070805 232  0.2+  0.0     070817 J47  1.4-  0.3-  

070513 349  1.0+  0.1+    070805 232  0.2+  0.2-    070817 J47  1.0-  0.2-  

070513 349  1.1+  0.1+    070805 B20  0.8-  0.2+    070817 J47  1.2-  0.0   

070513 E12  0.5+  0.1+    070805 B20  0.1-  0.3+    070817 704 (0.2-  3.8+) 

070519 349  0.2-  0.5-    070805 B20  0.4+  0.5+    070817 704 (2.5+  1.4+) 

070519 349  0.2-  0.5-    070807 349  0.0   0.1-    070817 704  1.7+  0.3+  

070519 349  0.2-  0.7-    070807 349  0.2+  0.3+    070817 704  1.7+  1.2+  

070525 415  0.5+  0.4+    070808 704 (2.3-  4.3+)   070817 704 (2.2-  4.1-) 

070525 415  0.3+  0.6+    070808 704 (2.3+  2.5+)   070818 B42  1.6+  1.1-  

070604 349  0.1-  0.6-    070808 704  1.1+  1.0+    070818 B42  0.9+  0.3-  

070604 349  0.1-  0.6-    070808 704 (2.5-  6.4-)   070818 B42  0.9+  0.7-  

070604 349  0.0   0.7-    070809 213  1.1-  0.2-    070819 J53  1.0+  0.3-  

070611 349  0.4+  0.3+    070809 213  0.0   0.6+    070819 J53  0.9+  0.0   

070611 349  0.3+  0.1+    070809 J51  0.8-  0.2-    070819 J53  0.8+  0.2+  

070612 349  0.2+  0.3+    070809 J51  0.5-  0.3+    070820 J51  0.8-  0.3+  

070612 349  0.4+  0.6+    070809 J51  0.1+  0.4-    070820 J51  0.7-  0.6+  

070613 673  1.1+  1.4+    070809 J51  0.0   0.6+    070824 J70  0.4+  0.4+  

070613 673  1.1+  1.3+    070809 J51  0.4-  0.1+    070824 J70  0.3+  0.3+  

070613 673  1.2+  1.4+    070809 B42  0.4-  0.5+    070824 J70  0.4+  0.2-  

070613 673  1.2+  1.1+    070809 B42  0.1-  0.2-    070824 J47 (3.1-  0.2-) 

070613 E12  0.5+  0.0     070809 B42  1.7+  0.2-    070824 J47  0.8-  0.8+  

070613 E12  0.3+  0.0     070809 235  0.7-  0.3-    070824 J47  1.1-  1.2+  

070613 E12  0.3+  0.0     070809 939  1.3-  0.3+    070824 213  0.6+  0.6+  

070613 E12  0.6+  0.1+    070809 939  1.0-  0.4+    070824 213  0.5+  0.7+  

070617 F85  0.7+  0.2+    070809 939  1.0-  0.4+    070824 213  0.0   0.5+  

070618 585  0.0   0.5+    070810 620  0.9+  0.1-    070824 510  0.8+  0.2-  

070618 585  0.6+  0.7+    070810 620  0.3+  0.0     070824 510  0.6+  0.4+  

070619 585  0.3-  0.7+    070810 945  0.1-  0.6+    070824 510  0.3+  0.6-  

070619 585  0.1-  0.5+    070810 945  0.1-  0.5+    070825 945  0.4-  0.0   

070620 B30  1.4-  1.1-    070810 945  0.2+  0.4+    070825 945  0.6-  0.1+  

070620 B30  1.4-  1.6+    070810 945  0.4-  0.6+    070825 945  0.3-  0.1-  

070705 J51  1.4-  0.5-    070810 945  0.3-  0.3+    070825 945  0.6-  0.3-  

070705 J51  0.1-  0.4-    070811 204  0.2-  0.1+    070825 945  0.5-  0.3-  

070712 H51  0.5-  0.3-    070811 J47 (0.1-  2.4+)   070825 349  0.0   0.1-  

070712 H51  0.9-  0.3-    070811 J47  0.4-  0.7+    070825 349  0.0   0.0   

070712 H51  0.8-  0.7-    070811 J47  0.8-  0.4+    070825 349  0.2+  0.1-  

070712 H51  1.2-  0.7-    070811 J51  0.1+  0.5-    070826 J47  0.7-  0.2+  

070712 H51  0.8-  0.6-    070811 J51  0.2+  0.4-    070826 J47  0.0   0.4+  

070712 H51  1.3-  0.7-    070811 J51  0.1+  0.0     070826 J47  0.7-  0.7+  

070712 H51  1.5-  0.8-    070811 232  0.1+  0.0     070827 213  0.5+  0.7+  

070712 H51  1.6-  0.9-    070811 232  0.4+  0.1-    070827 213  0.4+  0.5+  

070713 474  0.8+  0.3+    070811 J51  0.7-  0.1-    070827 213  0.0   0.4+  

070713 474  0.9+  0.3+    070811 B20  0.3+  0.2-    070831 808  0.9+  0.2-  

070713 474  0.9+  0.4+    070811 232  0.2+  0.1-    070831 808  0.2+  0.2-  

070714 A18  1.0-  0.2+    070811 J59  0.0   0.6-    070831 808  0.7+  0.6-  

070714 A18  0.5-  0.5-    070811 213  0.4-  0.4+    070831 945  0.2+  0.4-  

070714 232  0.5+  0.2-    070811 B20  0.2+  0.0     070831 945  0.0   0.3-  

070714 232  0.1-  0.2-    070811 213  0.2+  0.8+    070831 945  0.3+  0.6-  

070714 232  0.4+  0.5-    070811 B20  0.2+  0.0     070901 945  0.2-  0.4-  

070715 048  0.5+  0.3-    070811 213  0.4+  0.6+    070901 945  0.0   0.8-  

070715 048  0.5+  0.2-    070811 B19  0.4+  0.0     070901 213  0.2+  0.4+  

070715 048  0.1+  0.3-    070811 B19  0.1+  0.3-    070901 213  0.1+  0.0   

070715 048  0.3+  0.6-    070811 B19  0.3+  0.1-    070901 213  0.3-  0.0   

070715 048  0.6+  0.6-    070811 J59  0.9-  0.9-    070903 945  0.3+  0.2-  

070715 B19  0.9+  0.0     070811 204  0.2-  0.0     070903 945  0.5+  0.2-  

070715 B19  0.3+  0.9+    070811 J59  0.7-  0.7-    070903 945  0.1+  0.0   

070715 B19 (2.5+  0.2-)   070811 704 (2.1-  4.2+)   070903 945  0.2+  0.2-  

070716 704 (2.6-  0.7+)   070811 704  1.9+  1.8+    070903 945  0.2+  0.4+  

070716 704  0.3-  1.4+    070811 704  0.8+  1.7+    070905 J59  0.2-  0.2-  

070716 704  0.2-  1.3+    070811 704  1.6+  1.4+    070905 J59  0.2+  0.0   

070716 704  0.5+  1.1+    070811 704 (1.8-  5.6-)   070906 J59  0.1-  0.5-  

070716 704  0.0   1.4-    070811 900  0.9-  0.1-    070906 204  0.2+  0.1+  

070717 A79  0.6-  0.6+    070811 900  0.8-  0.2-    070906 204  0.0   0.3+  

070717 A79  0.4-  0.1+    070812 J47  0.1+  0.3-    070906 J51  0.0   0.6+  

070717 A79  0.0   0.2+    070812 J47  0.2-  0.1-    070906 J51  0.2+  0.7+  

070718 415  0.1-  0.1-    070812 J47  0.0   0.5+    070906 J51  0.0   0.7+  

070718 415  0.4+  0.2+    070812 J47  0.3-  0.8+    070906 B42  0.3+  0.6-  

070718 071  0.5+  0.6-    070812 J47  0.4-  0.4+    070906 B42  0.7+  0.6-  

070718 071  1.0+  0.7-    070812 A01  0.4-  0.2-    070906 B42  0.2+  0.3-  

070718 071  1.0+  0.5-    070812 A01  0.4-  0.4-    070906 B42  0.3+  0.6-  

070718 071  1.3+  0.4-    070812 A01  0.5-  0.2-    070906 B42  0.1+  0.2-  

070719 704 (1.1-  2.3+)   070812 939  1.2-  0.5+    070906 B42  1.2+  0.2-  

070719 704 (0.5+  2.2+)   070812 939  1.0-  0.5+    070907 349  0.2+  0.3-  

070719 704  1.3+  1.4+    070812 939  1.0-  0.5+    070907 349  0.0   0.2-  

070719 704 (0.9+  2.0+)   070812 900  0.6-  0.2-    070908 B42  1.3+  0.9-  

070719 704 (2.1+  1.4-)   070812 900  0.7-  0.4-    070908 B42  0.6+  0.0   

070720 071  1.9+  1.6-    070812 D88  0.2+  0.3+    070908 B42  0.8+  0.2-  

070720 071 (5.6-  1.4-)   070812 D88  0.2+  0.4+    070908 B42  0.8+  0.6-  

070720 071 (9.6-  2.9-)   070812 D88  0.1+  0.6+    070908 B42  0.2+  0.3-  

070720 A79  0.0   0.1-    070812 215  0.2+  0.0     070909 A06  0.4+  0.2-  

070720 A79  0.6-  0.4-    070812 215  0.0   0.2+    070909 A06  0.2+  0.1+  

070722 J52  0.3+  0.5-    070812 215  0.2+  0.1-    070909 A06  0.2+  0.2-  

070722 J52  0.1+  0.2-    070813 939  1.0-  0.3+    070909 945  0.4-  0.4-  

070722 J52  0.1+  0.4-    070813 939  1.2-  0.3+    070909 945  0.4-  0.5-  

070723 349  0.2-  0.3-    070813 939  1.1-  0.5+    070909 945  0.0   0.1-  

070723 349  0.0   0.1-    070813 H06  0.2-  0.3-    070909 945  0.3-  0.4-  

